KO4FRZ Weather Reports


time (UTC)temp
F
wind
direction
speed
knots
gust
knots
rain 1hr
in
rain 24hr
in
rain mn
in
humidity
%
barometer
mb
20260504190101 80 128 1.7 4.3 0.00 0.00 0.00 51 1016.0
20260504185600 80 94 3.5 6.1 0.00 0.00 0.00 51 1016.0
20260504185101 80 116 2.6 6.1 0.00 0.00 0.00 52 1016.0
20260504184600 81 136 3.5 5.2 0.00 0.00 0.00 49 1016.0
20260504184101 81 111 3.5 4.3 0.00 0.00 0.00 49 1016.0
20260504183600 81 133 0.9 2.6 0.00 0.00 0.00 51 1016.0
20260504183100 81 63 2.6 5.2 0.00 0.00 0.00 50 1016.0
20260504182600 81 49 2.6 4.3 0.00 0.00 0.00 48 1016.0
20260504182100 80 88 3.5 5.2 0.00 0.00 0.00 48 1016.0
20260504181602 80 85 2.6 6.1 0.00 0.00 0.00 51 1016.0
20260504181100 79 90 0.9 2.6 0.00 0.00 0.00 53 1016.0
20260504180600 80 61 2.6 4.3 0.00 0.00 0.00 52 1016.0
20260504175601 80 68 1.7 3.5 0.00 0.00 0.00 51 1016.0
20260504175101 80 59 4.3 7.8 0.00 0.00 0.00 51 1016.0
20260504174601 80 20 1.7 3.5 0.00 0.00 0.00 50 1016.0
20260504174102 80 133 1.7 5.2 0.00 0.00 0.00 50 1016.0
20260504173607 80 22 1.7 3.5 0.00 0.00 0.00 50 1016.0
20260504173100 81 64 2.6 4.3 0.00 0.00 0.00 48 1016.0
20260504172600 81 106 1.7 3.5 0.00 0.00 0.00 47 1016.0
20260504172100 81 111 2.6 5.2 0.00 0.00 0.00 48 1016.0
20260504171602 80 60 0.9 2.6 0.00 0.00 0.00 48 1016.0
20260504171101 80 48 2.6 4.3 0.00 0.00 0.00 49 1017.0
20260504170600 80 57 1.7 3.5 0.00 0.00 0.00 50 1017.0
20260504160103 78 44 2.6 6.1 0.00 0.00 0.00 51 1017.0
20260504151101 78 61 3.5 6.1 0.00 0.00 0.00 49 1017.0
20260504150601 78 62 4.3 7.0 0.00 0.00 0.00 52 1017.0
20260504141100 75 71 3.5 5.2 0.00 0.00 0.00 58 1017.0
20260504140601 75 35 5.2 10.4 0.00 0.00 0.00 57 1017.0
20260504130601 71 53 3.5 6.1 0.00 0.00 0.00 69 1017.0
20260504110600 66 29 1.7 2.6 0.00 0.00 0.00 84 1016.0
20260504100600 67 58 0.9 2.6 0.00 0.00 0.00 81 1016.0
20260504081628 69 52 0.9 2.6 0.00 0.00 0.00 78 1016.0
20260504081100 69 49 1.7 3.5 0.00 0.00 0.00 79 1016.0
20260504080600 69 38 1.7 3.5 0.00 0.00 0.00 79 1016.0
20260504050600 69 49 1.7 3.5 0.00 0.00 0.00 79 1017.0
20260504045600 69 61 2.6 3.5 0.00 0.00 0.00 78 1017.0
20260504045100 69 51 0.0 1.7 0.00 0.00 0.00 80 1017.0
20260504044601 69 61 0.0 0.0 0.00 0.00 0.00 79 1017.0
20260504044102 69 59 0.9 2.6 0.00 0.00 0.00 79 1017.0
20260504043601 69 56 0.9 2.6 0.00 0.00 0.00 79 1017.0
20260504043101 69 34 0.9 1.7 0.00 0.00 0.00 79 1017.0
20260504042600 69 0 0.0 0.0 0.00 0.00 0.00 80 1017.0
20260504042101 69 26 0.0 1.7 0.00 0.00 0.00 80 1017.0
20260504041601 69 31 0.0 1.7 0.00 0.00 0.00 80 1017.0
20260504041101 69 0 0.0 0.0 0.00 0.00 0.00 79 1017.0
20260504040601 69 0 0.0 0.0 0.00 0.00 0.00 80 1017.0
20260504040100 69 49 0.0 0.0 0.00 0.00 0.00 80 1017.0
20260504035601 69 54 0.0 1.7 0.00 0.00 0.10 78 1017.0
20260504035100 69 57 0.0 1.7 0.00 0.00 0.10 80 1017.0
20260504034600 69 49 0.9 2.6 0.00 0.00 0.10 79 1017.0
20260504034101 69 62 0.0 0.0 0.00 0.00 0.10 79 1017.0
20260504033601 69 64 0.9 2.6 0.00 0.00 0.10 78 1017.0
20260504033100 69 50 0.0 1.7 0.00 0.00 0.10 79 1017.0
20260504032600 69 55 0.9 2.6 0.00 0.00 0.10 79 1017.0
20260504032100 70 46 0.9 1.7 0.00 0.00 0.10 79 1017.0
20260504031601 70 48 0.9 1.7 0.00 0.00 0.10 78 1017.0
20260504031100 70 0 0.0 0.0 0.00 0.00 0.10 78 1017.0
20260504030601 70 36 0.0 2.6 0.00 0.00 0.10 76 1017.0
20260504030100 70 49 0.0 1.7 0.00 0.00 0.10 76 1017.0
20260504025600 70 65 0.0 1.7 0.00 0.00 0.10 75 1017.0
20260504025101 70 0 0.0 0.0 0.00 0.00 0.10 77 1017.0
20260504024602 70 40 0.0 1.7 0.00 0.00 0.10 76 1017.0
20260504024101 70 51 0.0 1.7 0.00 0.00 0.10 76 1017.0
20260504023601 70 0 0.0 0.0 0.00 0.00 0.10 76 1017.0
20260504023101 70 0 0.0 0.0 0.00 0.00 0.10 76 1017.0
20260504022600 70 54 0.9 1.7 0.00 0.00 0.10 75 1017.0
20260504022101 70 0 0.0 0.0 0.00 0.00 0.10 75 1017.0
20260504021601 70 92 0.0 1.7 0.00 0.00 0.10 75 1017.0
20260504021100 70 0 0.0 0.0 0.00 0.00 0.10 74 1017.0
20260504020600 71 59 0.0 1.7 0.00 0.00 0.10 74 1017.0
20260504020100 71 0 0.0 0.0 0.00 0.00 0.10 74 1017.0
20260504015600 71 44 0.0 1.7 0.00 0.00 0.10 74 1017.0
20260504015101 71 87 0.9 2.6 0.00 0.00 0.10 74 1017.0
20260504014601 71 0 0.0 0.0 0.00 0.00 0.10 74 1017.0
20260504014100 71 69 0.0 1.7 0.00 0.00 0.10 73 1017.0
20260504013600 71 85 0.0 0.0 0.00 0.00 0.10 73 1017.0
20260504013101 71 0 0.0 0.0 0.00 0.00 0.10 73 1017.0
20260504012600 71 76 0.0 1.7 0.00 0.00 0.10 72 1017.0
20260504012100 71 98 1.7 3.5 0.00 0.00 0.10 72 1017.0
20260504011600 71 61 0.9 1.7 0.00 0.00 0.10 72 1017.0
20260504011100 71 48 0.0 0.0 0.00 0.00 0.10 72 1017.0
20260504010601 71 60 0.0 1.7 0.00 0.00 0.10 72 1017.0
20260504010101 71 84 0.9 2.6 0.00 0.00 0.10 71 1017.0
20260504005600 71 44 0.9 1.7 0.00 0.00 0.10 71 1016.0
20260504005101 72 97 1.7 3.5 0.00 0.00 0.10 70 1016.0
20260504004601 72 78 0.0 1.7 0.00 0.00 0.10 70 1016.0
20260504004101 72 93 1.7 3.5 0.00 0.00 0.10 69 1016.0
20260504003603 72 77 1.7 3.5 0.00 0.00 0.10 69 1016.0
20260504003100 72 96 2.6 4.3 0.00 0.00 0.10 69 1016.0
20260504002600 72 58 1.7 3.5 0.00 0.00 0.10 68 1016.0
20260504002101 72 73 0.9 1.7 0.00 0.00 0.10 68 1016.0
20260504001601 73 83 1.7 3.5 0.00 0.00 0.10 68 1016.0
20260504001100 73 72 0.9 2.6 0.00 0.00 0.10 68 1016.0
20260504000600 73 88 1.7 3.5 0.00 0.00 0.10 68 1016.0
20260504000100 73 94 2.6 4.3 0.00 0.00 0.10 67 1016.0
20260503235600 73 95 1.7 3.5 0.00 0.00 0.10 67 1016.0
20260503235100 73 72 0.9 2.6 0.00 0.00 0.10 67 1016.0
20260503234601 73 97 0.0 1.7 0.00 0.00 0.10 67 1016.0
20260503234100 74 67 2.6 3.5 0.00 0.00 0.10 66 1016.0
20260503233600 74 66 2.6 4.3 0.00 0.00 0.10 66 1016.0
20260503233101 74 62 0.9 2.6 0.00 0.00 0.10 67 1016.0
20260503232600 74 91 0.9 3.5 0.00 0.00 0.10 67 1016.0
20260503232101 74 81 1.7 2.6 0.00 0.00 0.10 67 1016.0
20260503231600 74 88 1.7 2.6 0.00 0.00 0.10 67 1016.0
20260503231100 74 86 2.6 6.1 0.00 0.00 0.10 67 1016.0
20260503230600 74 61 2.6 7.0 0.00 0.00 0.10 67 1016.0
20260503230100 74 97 3.5 4.3 0.00 0.00 0.10 66 1016.0
20260503225601 74 91 3.5 4.3 0.00 0.00 0.10 66 1016.0
20260503225100 74 48 1.7 2.6 0.00 0.00 0.10 66 1016.0
20260503224600 74 93 3.5 5.2 0.00 0.00 0.10 66 1016.0
20260503224100 74 86 3.5 5.2 0.00 0.00 0.10 65 1016.0
20260503223601 75 91 0.9 2.6 0.00 0.00 0.10 66 1016.0
20260503223101 75 75 1.7 4.3 0.00 0.00 0.10 66 1016.0
20260503222601 75 54 2.6 6.1 0.00 0.00 0.10 65 1016.0
20260503222100 75 94 3.5 4.3 0.00 0.00 0.10 65 1016.0
20260503221601 75 96 4.3 7.0 0.00 0.00 0.10 65 1016.0
20260503221100 75 92 1.7 4.3 0.00 0.00 0.10 66 1016.0
20260503220600 75 122 1.7 3.5 0.00 0.00 0.10 65 1016.0
20260503215600 75 117 1.7 5.2 0.00 0.00 0.10 65 1016.0
20260503215100 75 45 1.7 4.3 0.00 0.00 0.10 66 1016.0
20260503214600 75 87 0.0 2.6 0.00 0.00 0.10 65 1015.0
20260503214101 75 69 1.7 3.5 0.00 0.00 0.10 64 1015.0
20260503213601 76 89 2.6 6.1 0.00 0.00 0.10 64 1016.0
20260503213101 76 95 2.6 4.3 0.00 0.00 0.10 64 1015.0
20260503212600 76 77 0.9 3.5 0.00 0.00 0.10 64 1015.0
20260503212100 76 67 1.7 2.6 0.00 0.00 0.10 64 1015.0
20260503211600 76 75 0.9 3.5 0.00 0.00 0.10 64 1016.0
20260503211100 76 104 1.7 3.5 0.00 0.00 0.10 63 1015.0
20260503210600 76 94 1.7 3.5 0.00 0.00 0.10 63 1016.0
20260503210100 76 45 2.6 3.5 0.00 0.00 0.10 64 1016.0
20260503205600 76 59 1.7 5.2 0.00 0.00 0.10 63 1016.0
20260503205100 76 89 1.7 5.2 0.00 0.00 0.10 62 1016.0
20260503204600 77 60 1.7 3.5 0.00 0.00 0.10 62 1016.0
20260503204100 77 55 1.7 4.3 0.00 0.00 0.10 62 1016.0
20260503203600 77 58 2.6 6.1 0.00 0.00 0.10 60 1016.0
20260503203100 77 92 0.9 3.5 0.00 0.00 0.10 61 1016.0
20260503202601 77 58 0.9 1.7 0.00 0.00 0.10 62 1016.0
20260503202101 77 95 1.7 2.6 0.00 0.00 0.10 61 1016.0
20260503201600 77 84 1.7 5.2 0.00 0.00 0.10 60 1016.0
20260503201101 77 78 0.0 2.6 0.00 0.00 0.10 61 1016.0
20260503200601 76 28 0.0 1.7 0.00 0.00 0.10 62 1016.0
20260503200100 77 71 3.5 6.1 0.00 0.00 0.10 61 1016.0
20260503195601 77 72 0.9 2.6 0.00 0.00 0.10 63 1016.0
20260503195100 77 88 3.5 6.1 0.00 0.00 0.10 60 1016.0
20260503194600 77 74 1.7 3.5 0.00 0.00 0.10 60 1016.0
20260503194101 77 68 2.6 3.5 0.00 0.00 0.10 62 1016.0
20260503193601 78 48 3.5 6.1 0.00 0.00 0.10 60 1016.0
20260503193100 78 94 2.6 4.3 0.00 0.00 0.10 58 1016.0
20260503192600 77 56 1.7 3.5 0.00 0.00 0.10 62 1017.0
20260503192100 77 56 1.7 2.6 0.00 0.00 0.10 62 1017.0
20260503191600 77 59 2.6 4.3 0.00 0.00 0.10 62 1017.0
20260503191101 77 96 3.5 6.1 0.00 0.00 0.10 60 1017.0
20260503190600 76 102 2.6 5.2 0.00 0.00 0.10 63 1017.0